Regional Weather Roundup
Issued by NWS Columbia, SC

Home | Current Version | Previous Version | Text Only | Print | Product List | Glossary On
Versions: 1 2 3 4 5 6 7 8 9 10 11 12 13 14 15 16 17 18 19 20 21 22 23 24 25 26 27
000
ASUS42 KCAE 120010
RWRCAE
REGIONAL WEATHER ROUNDUP
NATIONAL WEATHER SERVICE COLUMBIA SC
800 PM EDT TUE MAY 11 2021

NOTE: "FAIR" INDICATES FEW OR NO CLOUDS BELOW 12,000 FEET WITH NO
SIGNIFICANT WEATHER AND/OR OBSTRUCTIONS TO VISIBILITY.

NOT ALL STATIONS ARE QUALITY CONTROLLED BY THE NATIONAL
WEATHER SERVICE. USE DATA WITH CAUTION...ESPECIALLY
DEWPOINT OBSERVATIONS.

SCZ001>059-115-116-135>137-GAZ040-063>065-077-120100-
...UPSTATE SOUTH CAROLINA...

CITY           SKY/WX    TMP DP  RH WIND       PRES   REMARKS
ANDERSON       MOCLDY    72  60  66 E8        30.04S
6HR MIN TEMP:  72; 6HR MAX TEMP:  75;

LIBERTY        CLOUDY    69  59  70 E5        30.04F
6HR MIN TEMP:  71; 6HR MAX TEMP:  76;

SPARTANBURG    MOCLDY    68  54  60 CALM      30.06F
CLEMSON        CLOUDY    69  59  70 CALM      30.05F
6HR MIN TEMP:  69; 6HR MAX TEMP:  73;

GREENVILLE     CLOUDY    72  56  57 E6        30.07S
6HR MIN TEMP:  72; 6HR MAX TEMP:  75;

GREENWOOD      MOCLDY    70  62  76 E3        30.06S
6HR MIN TEMP:  70; 6HR MAX TEMP:  76;

GREER          CLOUDY    68  54  60 NE7       30.07S
6HR MIN TEMP:  68; 6HR MAX TEMP:  75;

ROCK HILL      PTCLDY    68  55  63 NE3       30.07F
6HR MIN TEMP:  68; 6HR MAX TEMP:  74;

CHESTER        MOCLDY    68  54  60 NE3       30.07F
LAURENS        MOCLDY    68  61  77 CALM      30.06S


...CENTRAL SOUTH CAROLINA...

CITY           SKY/WX    TMP DP  RH WIND       PRES   REMARKS
COLUMBIA APT   MOCLDY    75  59  57 N5        30.04R
6HR MIN TEMP:  75; 6HR MAX TEMP:  80;

COLUMBIA OWENS MOCLDY    75  60  59 E3        30.05R
6HR MIN TEMP:  75; 6HR MAX TEMP:  81;

MCENTIRE ANGB  MOCLDY    73  61  65 NE3       30.03R
6HR MIN TEMP:  73; 6HR MAX TEMP:  80;

ORANGEBURG     MOCLDY    73  65  75 NE7       30.04R
6HR MIN TEMP:  73; 6HR MAX TEMP:  84;

SUMTER SHAW    MOCLDY    74  59  58 NE6       30.04R
6HR MIN TEMP:  74; 6HR MAX TEMP:  80; 6HR PCP: TRACE;

AIKEN          FAIR      74  62  67 NE9       30.05R
6HR MIN TEMP:  73; 6HR MAX TEMP:  84;

BARNWELL       FAIR      79  64  61 CALM      30.03R
MANNING        CLOUDY    68  64  88 E5        30.04S
CAMDEN         MOCLDY    73  57  56 CALM      30.06R
LANCASTER        N/A     68  59  73 CALM      30.06F
WINNSBORO      MOCLDY    68  59  73 CALM      30.06S


...EASTERN AND COASTAL SOUTH CAROLINA...

CITY           SKY/WX    TMP DP  RH WIND       PRES   REMARKS
MYRTLE BEACH   MOCLDY    69  65  86 E7        30.07R
6HR MIN TEMP:  69; 6HR MAX TEMP:  73;

N MYRTLE BCH   CLOUDY    69  61  75 E9        30.07R
6HR MIN TEMP:  69; 6HR MAX TEMP:  74;

CONWAY         MOCLDY    68  64  88 CALM      30.07R
MARION         CLOUDY    70  59  68 NE6       30.07R
HARTSVILLE     FAIR      70  55  60 NE3       30.07R
FLORENCE       CLOUDY    73  57  57 NE7       30.06R
6HR MIN TEMP:  73; 6HR MAX TEMP:  79;

DARLINGTON     PTCLDY    72  58  61 NE5       30.07R HAZE
6HR MIN TEMP:  72; 6HR MAX TEMP:  78;

CHARLESTON APT MOCLDY    74  68  81 SE8       30.03R
6HR MIN TEMP:  74; 6HR MAX TEMP:  87;

MOUNT PLEASANT CLOUDY    73  70  88 CALM      30.03R
WALTERBORO     CLOUDY    77  68  73 SE7       30.03R
BEAUFORT       MOCLDY    77  70  79 S5        30.02R
6HR MIN TEMP:  77; 6HR MAX TEMP:  89;

HILTON HEAD    PTCLDY    75  72  88 S9        30.03S


...EASTERN GEORGIA...

CITY           SKY/WX    TMP DP  RH WIND       PRES   REMARKS
AUGUSTA BUSH F MOCLDY    79  66  64 E3        30.01R
6HR MIN TEMP:  79; 6HR MAX TEMP:  85;

AUGUSTA DANIEL MOCLDY    79  63  57 N5        30.03R
6HR MIN TEMP:  79; 6HR MAX TEMP:  83;

THOMSON        MOCLDY    75  68  77 NE3       30.03R
6HR MIN TEMP:  75; 6HR MAX TEMP:  82;

WASHINGTON     FAIR      72  64  78 CALM      30.03S
CLAXTON        FAIR      79  72  80 CALM      30.00S
6HR MIN TEMP:  79; 6HR MAX TEMP:  89;

SYLVANIA       CLOUDY    75  70  83 CALM      30.02R
6HR MIN TEMP:  75; 6HR MAX TEMP:  88;

STATESBORO     MOCLDY    78  64  62 CALM      30.00S
6HR MIN TEMP:  78; 6HR MAX TEMP:  85;

SAVANNAH       CLOUDY    76  68  76 S13       30.03R
6HR MIN TEMP:  75; 6HR MAX TEMP:  87;



...SOUTHERN NORTH CAROLINA...

CITY           SKY/WX    TMP DP  RH WIND       PRES   REMARKS
CHARLOTTE      MOCLDY    68  53  58 N8        30.08S
6HR MIN TEMP:  68; 6HR MAX TEMP:  73;

MONROE         PTCLDY    67  56  67 NE5       30.07S
6HR MIN TEMP:  67; 6HR MAX TEMP:  74;

WADESBORO      PTCLDY    69  55  62 CALM      30.08S
6HR MIN TEMP:  69; 6HR MAX TEMP:  74;

ROCKINGHAM     PTCLDY    68  56  65 CALM      30.08R
6HR MIN TEMP:  69; 6HR MAX TEMP:  75;

RUTHERFORDTON  CLOUDY    64  54  68 CALM      30.09F
ASHEVILLE      PTCLDY    62  53  72 CALM      30.11F
6HR MIN TEMP:  62; 6HR MAX TEMP:  68;


$$



USA.gov is the U.S. government's official web portal to all federal, state and local government web resources and services.